[[{"header":{"parameterUnit":"m.s-1","parameterCategory":1,"la1":30.2991,"la2":30.254,"lo1":-89.0895,"lo2":-89.0444,"dy":0.0017,"dx":0.0017,"nx":28,"ny":28,"refTime":"2024-09-04T03:00:00:Z","depth":0,"parameterNumber":2,"parameterNumberName":"U-component_of_WINDS"},"data":[0,0,0,0,0,0,0,0,0,0,0,0,0,0,0,0,0,0,0,0,0,0,0,0,0,0,0,0,0,0,0,0,0,0,0,0,0,0,0,0,0,0,0,0,0,0,0,0,0,0,0,0,0,0,0,0,0,0,-7.8798,-7.8799,0,-7.8924,-7.8925,-7.8927,-7.8694,-7.8686,-7.8678,-7.8671,-7.8797,-7.8807,-7.8818,0,0,0,0,0,0,0,0,0,0,0,0,0,-7.8352,-7.8362,-7.8798,-7.88,-7.8801,-7.8924,-7.8925,-7.8927,-7.8695,-7.8686,-7.8676,-7.8667,-7.8794,-7.8806,-7.8819,0,0,0,0,0,0,0,0,0,0,0,0,0,-7.8519,-7.8365,-7.8798,-7.87,-7.8693,-7.8923,-7.8926,-7.8928,-7.8697,-7.8685,-7.8674,-7.8663,-7.879,-7.8805,-7.8821,-7.9151,0,0,-7.8869,-7.8876,0,0,0,0,0,0,0,0,-7.851,-7.8536,-7.8713,-7.8707,-7.8699,-7.8781,-7.8814,-7.9003,-7.87,-7.8695,-7.8671,-7.8657,-7.8801,-7.8815,-7.8864,-7.9157,-7.9163,-7.8871,-7.888,-7.8887,-7.8891,0,0,0,0,0,0,0,-7.8499,-7.8529,-7.8847,-7.8716,-7.8708,-7.8649,-7.866,-7.8849,-7.8812,-7.8695,-7.8678,-7.8696,-7.8795,-7.885,-7.8866,-7.9165,-7.887,-7.8884,-7.8894,-7.89,-7.9736,-7.9748,0,0,0,0,0,0,-7.85,-7.8521,-7.8843,-7.8851,-7.8574,-7.8666,-7.8678,-7.8767,-7.8809,-7.8804,-7.8706,-7.8685,-7.8828,-7.8847,-7.8869,-7.9261,-7.8887,-7.8902,-7.8911,-7.9723,-7.9739,-7.9752,0,0,0,0,0,0,-7.8491,-7.8531,-7.8838,-7.8682,-7.8716,-7.8686,-7.8787,-7.8775,-7.8829,-7.8818,-7.881,-7.8769,-7.882,-7.8847,-7.9083,-7.9262,-7.8909,-7.8923,-7.9708,-7.9728,-7.9746,-8.0046,0,0,0,0,0,0,-7.8479,-7.8529,-7.8656,-7.8686,-7.8726,-7.9053,-7.8798,-7.8786,-7.8858,-7.8832,-7.8875,-7.8871,-7.8813,-7.9061,-7.9099,-7.9277,-7.8936,-7.9692,-7.9717,-7.974,-8.002,-8.0073,-8.0118,0,0,0,0,0,-7.8464,-7.8734,-7.8663,-7.8703,-7.8883,-7.9063,-7.9086,-7.9015,-7.8873,-7.9,-7.8992,-7.8869,-7.9236,-7.9087,-7.9128,-7.9314,-7.9681,-7.971,-7.9738,-7.9998,-8.0063,-8.0117,0,0,0,0,0,0,-7.8724,-7.8736,-7.8658,-7.8946,-7.9006,-7.9024,-7.9181,-7.9085,-7.9185,-7.9156,-7.9062,-7.9074,-7.933,-7.9344,-7.9179,-7.9636,-7.9434,-7.9472,-7.9618,-7.9679,-7.9728,-7.972,-7.8949,0,0,0,0,0,-7.8815,-7.8961,-7.8963,-7.9217,-7.9252,-7.9212,-7.9288,-7.9228,-7.9285,-7.9309,-7.9318,-7.9378,-7.9506,-7.9593,-7.971,-8.002,-8.0027,-8.0168,-8.0217,-8.0257,-8.0292,-8.0459,-8.0522,-7.9846,-7.9846,-7.9845,0,0,-7.9004,-7.9029,-7.9127,-7.927,-7.9309,-7.9463,-7.9235,-7.9406,-7.9519,-7.9334,-7.956,-7.9569,-7.9629,-7.9905,-8.0026,-7.9925,-8.048,-8.0294,-8.0326,-8.0339,-8.0494,-8.0559,-8.0616,-7.9865,-7.9862,-7.9859,0,0,-7.9427,-7.946,-7.9677,-7.9721,-7.9784,-7.9755,-7.9808,-7.9841,-7.9841,-8.0065,-7.993,-8.0061,-8.0284,-8.0334,-8.0388,-8.083,-8.0722,-8.0871,-8.1128,-8.1292,-8.1345,-8.1392,-8.1552,-8.161,-8.0905,-8.0906,-8.0906,0,-7.9654,-7.9881,-7.9799,-7.9982,-8.0049,-7.989,-8.0108,-8.0154,-8.0252,-8.0302,-8.0186,-8.0464,-8.0493,-8.0778,-8.0887,-8.0935,-8.0992,-8.0867,-8.1344,-8.139,-8.1432,-8.1584,-8.1644,-8.0924,-8.0921,-8.092,-8.0918,0,-8.0158,-8.0318,-8.0484,-8.0585,-8.067,-8.087,-8.0818,-8.0914,-8.0846,-8.083,-8.1061,-8.109,-8.1211,-8.1273,-8.1208,-8.1551,-8.1486,-8.1359,-8.1155,-8.1516,-8.1657,-8.1714,-8.0949,-8.0943,-8.0937,-8.0933,0,0,-8.075,-8.0804,-8.0867,-8.0911,-8.0968,-8.109,-8.1281,-8.1401,-8.1486,-8.1558,-8.1717,-8.1909,-8.1792,-8.1854,-8.1792,-8.1936,-8.2287,-8.179,-8.179,-8.1884,-8.2668,-8.2765,-8.2834,-8.2214,-8.2224,-8.2233,-8.2663,0,-8.1173,-8.1506,-8.1438,-8.1763,-8.191,-8.176,-8.1927,-8.198,-8.197,-8.2092,-8.2078,-8.2218,-8.2052,-8.2088,-8.2223,-8.2216,-8.2443,-8.2183,-8.2361,-8.2369,-8.2355,-8.2907,-8.301,-8.3416,-8.2718,-8.2727,-8.2734,0,-8.1711,-8.1806,-8.2148,-8.2183,-8.2241,-8.2393,-8.2498,-8.2616,-8.2672,-8.2654,-8.2725,-8.2636,-8.2825,-8.2617,-8.2876,-8.2701,-8.2769,-8.2777,-8.279,-8.2807,-8.2576,-8.2941,-8.3543,-8.3605,-8.2819,-8.2812,-8.2806,0,-8.2113,-8.2325,-8.2557,-8.2599,-8.2645,-8.2755,-8.2779,-8.2824,-8.2901,-8.2992,-8.304,-8.3152,-8.3214,-8.3301,-8.3245,-8.3098,-8.3515,-8.3301,-8.3506,-8.3509,-8.3604,-8.3599,-8.4228,-8.3644,-8.3643,-8.3642,-8.364,0,-8.2594,-8.2809,-8.2738,-8.2882,-8.3118,-8.3036,-8.3272,-8.3278,-8.332,-8.346,-8.3336,-8.347,-8.3386,-8.3514,-8.347,-8.3693,-8.3721,-8.3712,-8.3699,-8.3726,-8.3728,-8.3771,-8.3743,-8.3658,-8.3654,-8.3651,-8.3648,0,-8.3083,-8.3045,-8.3288,-8.3312,-8.3323,-8.3497,-8.3516,-8.3649,-8.3629,-8.3809,-8.3846,-8.3815,-8.3959,-8.391,-8.4064,-8.4034,-8.4319,-8.4267,-8.4302,-8.429,-8.4499,-8.4481,-8.518,-8.5269,-8.4625,-8.4631,-8.4636,0,-8.3395,-8.3557,-8.3599,-8.3686,-8.372,-8.386,-8.3938,-8.3863,-8.3949,-8.4026,-8.415,-8.4283,-8.4386,-8.4623,-8.4613,-8.473,-8.4682,-8.4919,-8.4699,-8.4721,-8.4689,-8.4681,-8.4698,-8.4964,-8.4971,-8.4977,-8.4982,0,-8.3952,-8.3925,-8.4043,-8.4157,-8.4254,-8.4339,-8.4412,-8.4489,-8.4418,-8.4521,-8.4668,-8.4748,-8.4905,-8.504,-8.5145,-8.5167,-8.5066,-8.5051,-8.5105,-8.5136,-8.5151,-8.5148,-8.4425,-8.5036,-8.5031,-8.5027,-8.5024,-8.5022,-8.4363,-8.4502,-8.4554,-8.469,-8.4737,-8.4809,-8.4936,-8.4932,-8.5053,-8.5177,-8.5124,-8.5294,-8.5345,-8.5477,-8.5514,-8.5645,-8.5554,-8.5632,-8.5652,-8.5673,-8.5701,-8.5128,-8.5663,-8.5662,-8.566,-8.5659,-8.5658,0,-8.4917,-8.4943,-8.5069,-8.5177,-8.5284,-8.5178,-8.5253,-8.535,-8.5501,-8.5559,-8.5663,-8.5832,-8.5961,-8.5962,-8.6082,-8.6186,-8.6142,-8.6221,-8.6214,-8.6221,-8.5775,-8.5718,-8.6255,-8.6255,-8.6254,-8.6254,-8.6254,-8.6254,-8.5217,-8.5447,-8.5426,-8.5677,-8.57,-8.5867,-8.592,-8.5985,-8.603,-8.6225,-8.6333,-8.6332,-8.6367,-8.6489,-8.6603,-8.6599,-8.665,-8.6748,-8.6727,-8.6311,-8.6252,-8.6196,-8.6141,-8.6759,-8.6759,-8.7162,-8.7166,-8.7169]},{"header":{"parameterUnit":"m.s-1","parameterCategory":1,"la1":30.2991,"la2":30.254,"lo1":-89.0895,"lo2":-89.0444,"dy":0.0017,"dx":0.0017,"nx":28,"ny":28,"refTime":"2024-09-04T03:00:00:Z","depth":0,"parameterNumber":3,"parameterNumberName":"V-component_of_WINDS"},"data":[0,0,0,0,0,0,0,0,0,0,0,0,0,0,0,0,0,0,0,0,0,0,0,0,0,0,0,0,0,0,0,0,0,0,0,0,0,0,0,0,0,0,0,0,0,0,0,0,0,0,0,0,0,0,0,0,0,0,-4.3071,-4.3068,0,-4.2792,-4.2789,-4.2786,-4.2615,-4.2614,-4.2613,-4.2612,-4.2319,-4.2312,-4.2305,0,0,0,0,0,0,0,0,0,0,0,0,0,-4.3444,-4.3439,-4.3071,-4.3068,-4.3064,-4.2793,-4.2789,-4.2785,-4.2615,-4.2614,-4.2613,-4.2612,-4.2321,-4.2313,-4.2304,0,0,0,0,0,0,0,0,0,0,0,0,0,-4.3236,-4.3437,-4.3072,-4.2947,-4.2933,-4.2793,-4.2789,-4.2784,-4.2615,-4.2614,-4.2612,-4.2611,-4.2324,-4.2313,-4.2303,-4.2264,0,0,-4.2271,-4.2266,0,0,0,0,0,0,0,0,-4.3248,-4.3222,-4.2968,-4.2955,-4.2939,-4.2737,-4.2813,-4.2609,-4.2615,-4.2735,-4.2612,-4.261,-4.2458,-4.2437,-4.2387,-4.225,-4.2238,-4.227,-4.2264,-4.2259,-4.2256,0,0,0,0,0,0,0,-4.3262,-4.3233,-4.296,-4.2965,-4.2947,-4.2901,-4.2869,-4.2773,-4.2607,-4.2725,-4.2712,-4.2681,-4.245,-4.2398,-4.2379,-4.2233,-4.227,-4.2261,-4.2255,-4.225,-4.2043,-4.2044,0,0,0,0,0,0,-4.3298,-4.3246,-4.2969,-4.2952,-4.3094,-4.2895,-4.286,-4.2803,-4.2608,-4.2577,-4.2683,-4.2674,-4.2416,-4.2391,-4.2368,-4.2304,-4.2259,-4.2249,-4.2243,-4.2042,-4.2043,-4.2044,0,0,0,0,0,0,-4.3307,-4.3275,-4.298,-4.3095,-4.3054,-4.289,-4.2827,-4.2798,-4.2745,-4.2576,-4.2545,-4.2661,-4.2414,-4.2383,-4.229,-4.2292,-4.2245,-4.2235,-4.2041,-4.2043,-4.2044,-4.2181,0,0,0,0,0,0,-4.3318,-4.3279,-4.3266,-4.3097,-4.3049,-4.2911,-4.2827,-4.2794,-4.2729,-4.2715,-4.2547,-4.2518,-4.2411,-4.2307,-4.228,-4.2277,-4.2227,-4.204,-4.2042,-4.2043,-4.2175,-4.2186,-4.2196,0,0,0,0,0,-4.3332,-4.3315,-4.3266,-4.3233,-4.3029,-4.2912,-4.2884,-4.2764,-4.273,-4.2712,-4.2603,-4.2523,-4.2297,-4.2299,-4.2267,-4.2261,-4.204,-4.2042,-4.2043,-4.2171,-4.2184,-4.2196,0,0,0,0,0,0,-4.3487,-4.3291,-4.3234,-4.3163,-4.3055,-4.2883,-4.2858,-4.2783,-4.2681,-4.2673,-4.2525,-4.2488,-4.2409,-4.2325,-4.2331,-4.2209,-4.2159,-4.2154,-4.2266,-4.2278,-4.2288,-4.2308,-4.2218,0,0,0,0,0,-4.3513,-4.3438,-4.3269,-4.3222,-4.3171,-4.3024,-4.2969,-4.2885,-4.2767,-4.272,-4.2604,-4.249,-4.2391,-4.2331,-4.2232,-4.2163,-4.212,-4.2142,-4.2153,-4.2162,-4.2159,-4.211,-4.2116,-4.205,-4.205,-4.205,0,0,-4.3566,-4.3449,-4.341,-4.325,-4.3157,-4.3077,-4.2987,-4.2908,-4.2846,-4.2707,-4.2612,-4.2523,-4.2385,-4.2303,-4.2261,-4.2231,-4.2168,-4.2165,-4.2173,-4.2164,-4.2113,-4.2119,-4.2125,-4.2051,-4.2051,-4.2051,0,0,-4.362,-4.3527,-4.3474,-4.3383,-4.3244,-4.3146,-4.3134,-4.2972,-4.2907,-4.281,-4.2702,-4.2625,-4.2462,-4.2366,-4.2297,-4.2311,-4.2231,-4.2283,-4.2336,-4.229,-4.2295,-4.2299,-4.2299,-4.2301,-4.2281,-4.2281,-4.2281,0,-4.3702,-4.3581,-4.3456,-4.3382,-4.3312,-4.3184,-4.3127,-4.3044,-4.2879,-4.2831,-4.2801,-4.259,-4.2489,-4.238,-4.2383,-4.2333,-4.2309,-4.23,-4.2305,-4.2308,-4.2309,-4.2307,-4.2308,-4.2288,-4.2287,-4.2286,-4.2286,0,-4.3686,-4.3604,-4.3577,-4.3422,-4.335,-4.3285,-4.3146,-4.3087,-4.3009,-4.2913,-4.2812,-4.2686,-4.2557,-4.2525,-4.2448,-4.2403,-4.2388,-4.2334,-4.228,-4.2324,-4.232,-4.2319,-4.2297,-4.2295,-4.2293,-4.2291,0,0,-4.383,-4.3605,-4.3597,-4.3523,-4.3359,-4.329,-4.3217,-4.3093,-4.3042,-4.2932,-4.2863,-4.2727,-4.2674,-4.2595,-4.2505,-4.2466,-4.2479,-4.2415,-4.2409,-4.2427,-4.2415,-4.2454,-4.2456,-4.2426,-4.2426,-4.2425,-4.2425,0,-4.3856,-4.3722,-4.3605,-4.3512,-4.343,-4.3306,-4.3241,-4.3131,-4.3039,-4.2953,-4.2849,-4.2753,-4.2694,-4.2644,-4.26,-4.2487,-4.2473,-4.2486,-4.2356,-4.2353,-4.2391,-4.2454,-4.2497,-4.2503,-4.2423,-4.2422,-4.2422,0,-4.3869,-4.3765,-4.3664,-4.3503,-4.3465,-4.341,-4.3283,-4.3205,-4.3075,-4.301,-4.2921,-4.2827,-4.2738,-4.2696,-4.2569,-4.258,-4.2519,-4.2456,-4.2453,-4.2433,-4.2388,-4.2432,-4.2502,-4.2502,-4.2419,-4.2419,-4.242,0,-4.3979,-4.3813,-4.3729,-4.367,-4.3482,-4.3445,-4.3364,-4.3234,-4.3165,-4.3053,-4.3006,-4.2886,-4.2819,-4.2726,-4.26,-4.2582,-4.2485,-4.2433,-4.2424,-4.2427,-4.2407,-4.2409,-4.2464,-4.2375,-4.2375,-4.2375,-4.2375,0,-4.4018,-4.396,-4.3775,-4.3724,-4.3652,-4.3518,-4.345,-4.3358,-4.3242,-4.3166,-4.3052,-4.2983,-4.2823,-4.2733,-4.2634,-4.2541,-4.2513,-4.2454,-4.2427,-4.2462,-4.2469,-4.2418,-4.2413,-4.2375,-4.2375,-4.2375,-4.2375,0,-4.4127,-4.4002,-4.3902,-4.3732,-4.3687,-4.3642,-4.3494,-4.3436,-4.3337,-4.3243,-4.3213,-4.3056,-4.2944,-4.281,-4.2655,-4.2588,-4.2502,-4.2465,-4.2547,-4.2531,-4.2528,-4.2528,-4.2549,-4.2542,-4.2463,-4.2464,-4.2465,0,-4.4159,-4.4111,-4.3936,-4.3878,-4.3801,-4.371,-4.3639,-4.3503,-4.3433,-4.3279,-4.3239,-4.3119,-4.3015,-4.2841,-4.2711,-4.259,-4.2546,-4.2562,-4.2527,-4.2562,-4.2541,-4.2544,-4.2536,-4.257,-4.2572,-4.2573,-4.2574,0,-4.4227,-4.4166,-4.407,-4.3951,-4.3869,-4.3768,-4.3662,-4.362,-4.3461,-4.3388,-4.3273,-4.3193,-4.3034,-4.2914,-4.2776,-4.2688,-4.2602,-4.2586,-4.2577,-4.261,-4.2657,-4.2627,-4.2567,-4.2586,-4.2584,-4.2584,-4.2583,-4.2583,-4.4294,-4.4244,-4.4112,-4.4006,-4.3912,-4.3815,-4.3751,-4.3644,-4.3547,-4.3408,-4.3333,-4.3218,-4.3084,-4.2891,-4.2805,-4.2711,-4.2681,-4.2669,-4.2665,-4.2663,-4.2671,-4.2676,-4.2686,-4.2685,-4.2685,-4.2684,-4.2684,0,-4.4352,-4.426,-4.4165,-4.402,-4.3936,-4.3867,-4.3744,-4.3677,-4.3579,-4.3463,-4.3363,-4.3228,-4.3111,-4.2971,-4.2843,-4.2794,-4.2751,-4.2764,-4.2764,-4.2744,-4.2708,-4.2726,-4.28,-4.28,-4.28,-4.28,-4.28,-4.28,-4.4372,-4.4281,-4.4205,-4.4065,-4.3972,-4.3861,-4.3797,-4.3704,-4.361,-4.3466,-4.3368,-4.3279,-4.315,-4.3012,-4.2899,-4.286,-4.2816,-4.2841,-4.279,-4.2758,-4.2748,-4.2738,-4.2755,-4.2833,-4.2833,-4.2833,-4.2833,-4.2834]}]]